Weather in Gornoye

Russia / Jewish Autonomous Oblast     48°08′31″N   132°26′26″E
temp.,
°C
wind,
m/s
gust,
m/s
humid.,
%
clouds,
%
prec.,
mm/h
press.,
hPa
HPBL,
m
19 may, wed
wed1901:00+14ene11765 0.0 100020
04:00+13ene2385100 0.0 100071
07:00+14ne2383100 0.1 1001146
10:00+17ene1167100 0.4 1001555
13:00+21nw2354100 0.1 10021191
16:00+23wsw354384 0.1 10022362
19:00+21nw3643100 0.0 1003230
22:00+16ne11495 0.0 100411
20 may, thu
thu2001:00+15ese22520 0.0 100412
04:00+13sse227816 0.1 100236
07:00+15ssw2486100 0.4 1002151
10:00+20sw48605 0.9 1001839
13:00+25w5844100 0.0 10011794
16:00+26nw564258 0.0 10021408
19:00+21nw596060 0.7 1003600
22:00+16w11741 2.1 100511
21 may, fri
fri2101:00+14nw2267100 0.0 100621
04:00+12ene11720 0.0 100611
07:00+14e11712 0.0 100757
10:00+20e23460 0.0 1006471
13:00+24ese22390 0.0 1006982
16:00+26ene12364 0.0 10041312
19:00+24ene235084 0.0 1003167
22:00+19se22595 0.0 100413
22 may, sat
sat2201:00+17ne226413 0.1 100420
04:00+16e336916 0.1 100335
07:00+15e36715 0.0 1005249
10:00+18e46515 0.0 1006645
13:00+22e44430 0.0 1005871
16:00+24e33410 0.0 10041072
19:00+23e35525 0.0 1003611
22:00+17ese33705 0.0 100543
23 may, sun
sun2301:00+15ese347128 0.0 100582
04:00+14ese3377100 0.0 100561
07:00+15ese368597 0.6 1004188
10:00+21sse4860100 0.9 1003705
13:00+22ssw51260100 0.3 10021445
16:00+19sse31078100 0.8 1002550
19:00+19s51277100 0.4 1000895
22:00+17sw41388100 2.5 1001681